Weather in Sargazy

Russia / Chelyabinsk Oblast     55°01′19″N   61°15′03″E
temp.,
°C
wind,
m/s
gust,
m/s
humid.,
%
clouds,
%
prec.,
mm/h
press.,
hPa
HPBL,
m
17 september, fri
fri1723:00+4w5118115 0.0 1004510
02:00+4w61277100 0.0 1003771
05:00+4w71285100 0.0 10021025
08:00+4wnw61190100 0.2 1003934
11:00+7wnw71173100 0.3 10031080
14:00+7nw81171100 0.1 10051070
17:00+7wnw7982100 0.3 1006961
20:00+6wnw61183100 0.1 1008933
18 september, sat
sat1823:00+5wnw6985100 0.3 1009854
02:00+5w5883100 0.1 1009664
05:00+4w4889100 0.1 1009676
08:00+5wnw5787100 0.3 1009763
11:00+4w689289 0.4 1010512
14:00+5wnw688283 0.2 1010808
17:00+6wnw796968 0.3 10101107
20:00+3wnw611825 0.0 1011419
19 september, sun
sun1923:00+1wnw614836 0.0 1012634
02:00+3wnw8126798 0.0 10111154
05:00+3wnw81476100 0.0 10111058
08:00+3wnw81470100 0.0 10111183
11:00+5wnw101456100 0.0 10121454
14:00+5nw101361100 0.0 10141335
17:00+6nw91460100 0.0 10161318
20:00+3nw814665 0.0 1018928
20 september, mon
mon2023:00+2nw612725 0.0 1020665
02:00−1wnw498512 0.0 1022210
05:00+1nw596768 0.0 1023372
08:00+2nnw586312 0.0 1025757
11:00+6nnw565077 0.0 10261214
14:00+8nnw454264 0.0 10261439
17:00+8n4444100 0.0 10261506
20:00+4ne476495 0.0 1028187
21 september, tue
tue2123:00+2ne227594 0.0 103035
02:00+4nne1165100 0.0 103045
05:00+1wnw117379 0.0 103010
08:00+2wsw11698 0.0 103154
11:00+7ssw22495 0.0 1029985
14:00+10sw334110 0.0 10271247
17:00+11sw33375 0.0 10261300
20:00+6ssw33544 0.0 102618